Погода Пушкинские Горы

Погода Пушкинские Горы : погода сейчас, прогноз погоды и архив. Всё, что Вы хотите узнать о погоде Пушкинские Горы!

Хотите узнать прогноз погоды Пушкинские Горы? Тогда Вам сюда: Погода Пушкинские Горы

Поиск расширенной информации на нашем сайте:

Другие новости

Новости СМИ2

Главная страница сайта

Новости сайта

03.07.2017

Напоминаем, что на нашем специализированном сайте Метеоцентр.Азия вы можете получить высокодетализированные автоматические прогнозы погоды по пунктам России, СНГ и мира в авиационном формате (включающие направление и скорость ветра, видимость, явления погоды, количество и форму облачности, нижнюю и верхнюю границу облачности).

Рекомендуем: Купить перила для лестниц http://www.artmetal-kovka.ru.

Погода Пушкинские Горы - сегодня

Время (UTC), дата Ветер
(°,м/с) 
Видим.   Явления Облачность Т
(°С)
Тd
(°С)
f(%) Тe
(°С)
Pmin
(гПа)
dP
(гПа)
Po
(мм)
O2
(г/м3)
Тmin Tmax R s Состояние
почвы
21 23.07.17 070 (В) 20000 м    ясно 
+11.9 +10.9 94 +15  1015.7  0.1  753  289           
00 24.07.17 120 (ЮВ) 20000 м    ясно 
+10.8 +10.2 96 +13  1014.9  -0.9  752  290           
03 24.07.17 140 (ЮВ) 10 км    3/0 верхняя 
[Ci fib]
+11.1 +9.9 92 +13  1014.3  -0.9  752  289  +9.5         
06 24.07.17 230 (ЮЗ) 20000 м    9/0 верхняя 
[Ci fib]
+17.2 +11.9 71 +23  1012.8  -1.2  751  282  +9.5        сухая 
09 24.07.17 250 (З) 20000 м    9/3 1000 м верхняя 
[Cu med, cong|Ci fib]
+21.5 +10.4 49 +23  1011.8  -0.8  750  278           
12 24.07.17 310 (СЗ) 20000 м    9/4 1000 м кучево-дожд., верхняя 
[Cb cap|Cc]
+23 +9.9 43 +24  1010.9  -0.9  749  277           
15 24.07.17 010 (С) 20000 м    9/9 1000 м кучево-дожд. 
[Cb cap]
+20.8 +12.7 60 +26  1010.4  -0.5  749  278           
18 24.07.17 040 (СВ) 20000 м    9/9 600 м кучево-дожд. 
[Cb cap]
+18.6 +13 70 +25  1010  -0.5  749  280    +23.6       
21 24.07.17 070 (В) 20000 м    9/9 600 м кучево-дожд. 
[Cb cap]
+16.1 +13.9 87 +24  1009.9  -0.2  749  282           
00 25.07.17 тихо ()   20000 м    9/9 600 м кучево-дожд. 
[Cb cap]
+15.5 +13.4 87 +22  1009.5  -0.4  748  283           
03 25.07.17 070 (В) 20000 м    9/9 600 м кучево-дожд. 
[Cb cap]
+16 +13.2 83 +23  1008.6  -0.9  748  282  +14.9         
06 25.07.17 060 (СВ) 20000 м    3/0 средняя 
[Ac cuf]
+19.1 +12.8 67 +25  1008.1  -0.4  747  279  +14.9        сухая 
09 25.07.17 070 (В) 20000 м    9/0 кучево-дожд. 
[Cb cap]
+21.3 +13.9 63 +28  1007.7  -0.3  747  276           
12 25.07.17 040 (СВ) 20000 м    9/8 600 м кучево-дожд., средняя, верхняя 
[Cb cap|Ac trans|Ci fib]
+21.6 +15.3 67 +31  1007.2  -0.4  747  276           
15 25.07.17 090 (В) 20000 м    8/8 600 м кучево-дожд. 
[Cb calv]
+21.5 +14.6 65 +30  1006.5  -0.8  746  276           
18 25.07.17 060 (СВ) 20000 м    5/0 средняя, верхняя 
[Ac cuf|Ci fib]
+19.7 +15.1 75 +30  1005.8  -0.7  746  277    +22.4       
21 25.07.17 060 (СВ) 20000 м    4/0 средняя 
[Ac cast]
+17.2 +15 87 +27  1005.6  -0.4  745  279           
00 26.07.17 060 (СВ) 4000 м  слаб. ливневой дождь  10/10 300 м кучево-дожд. 
[Cb cap]
+16.3 +15.8 97 +27  1004.2  -1.4  744  280           
03 26.07.17 040 (СВ) 4000 м  дымка{ливн. осадки}  10/10 300 м кучево-дожд. 
[Cb cap]
+16.3 +15.9 97 +28  1002.4  -1.7  743  279  +15.9       
06 26.07.17 080 (В) 4000 м  слаб. ливневой дождь  10/10 300 м кучево-дожд. 
[Cb cap]
+17 +16.7 98 +30  1002  -0.4  743  278  +15.9      влажная 
09 26.07.17 110 (В) 10 км  {ливн. осадки}  10/10 300 м кучево-дожд. 
[Cb cap]
+18.5 +17.6 94 +34  1001.9  743  276           
12 26.07.17 060 (СВ) 10 км  слаб. ливневой дождь  10/10 300 м кучево-дожд. 
[Cb cap]
+18.9 +17.7 93 +34  1001.6  -0.3  742  276           
15 26.07.17 090 (В) 20000 м  {ливн. осадки}  9/9 300 м кучево-дожд. 
[Cb cap]
+18.9 +17.7 93 +34  1001.5  0.1  742  276         
18 26.07.17 060 (СВ) 20000 м  {ливн. осадки}  9/9 300 м кучево-дожд. 
[Cb cap]
+18.1 +17.2 94 +32  1001.5  742  277    +19.3     
21 26.07.17 070 (В) 10 км  {ливн. осадки}  10/10 300 м кучево-дожд. 
[Cb cap]
+17.3 +16.6 96 +30  1001.2  -0.3  742  278           
Время (UTC), дата Ветер
(°,м/с) 
Видим.   Явления Облачность Т
(°С)
Тd
(°С)
f(%) Тe
(°С)
Pmin
(гПа)
dP
(гПа)
Po
(мм)
O2
(г/м3)
Тmin Tmax R s Состояние
почвы

Для получения пояснительной информации подведите курсор к названию столбца.

ПОГОДА Пушкинские Горы - архив

Всё, что Вы хотите узнать о погоде Пушкинские Горы - удобно и подробно!

Выберите нужную дату (начиная с 1 января 2015* года) и нажмите кнопку "Найти".
Будут отображены архивные сводки погоды по пункту Пушкинские Горы, начиная с указанной даты.


Отображать данные в формате CSV (для использования в таблицах Excel)


Внимание! Наш архив погоды предназначен исключительно для личного некоммерческого использования в познавательных целях. Если Вам необходимы официальные справки о состоянии погоды (для производственных, юридических, коммерческих и т.п. целей), обращайтесь в органы Росгидромета.

*Примечание: данная дата относится к архиву по метеостанциям СССР (Россия, СНГ, Балтия).
Архив по метеостанциям Зарубежной Европы и Азии (кроме Китая) хранится 10 дней, по другим регионам земного шара (Китай, Африка, Америка, Австралия, Океания) - 1 день.

Пушкинские Горы - район местоположения метеостанции


Название, широта, долгота, высота метеостанции:
Пушкинские Горы 57°ш. 28.9°д. 108 м над ур. моря [Российская Федерация]

Дополнительная информация

В oтличие oт бoльшинства пoгoдных сайтoв мы публикуем пoдрoбную метеoинфoрмацию в детальнoм прoфессиoнальнoм фoрмате.

Характеристики температуры и влажнoсти вoздуха измеряются на высoте 2 м в тени вдали oт зданий и деревьев.
Скoрoсть ветра измеряется на высoте 10 м (на урoвне рoста челoвека скoрoсть ветра ниже в 1.5-2 раза). Если метеoстанция нахoдится в гoрoде или в лесу, тo скoрoсть ветра занижена на 2-4 м/с пo сравнению с oткрытым местoм. Скoрoсть ветра над акватoриями крупных рек и oзёр, а также на вершинах хoлмoв на 2-5 м/с выше, чем в oбычных услoвиях.
Атмoсфернoе давление в разных тoчках местнoсти мoжет значительнo oтличаться oт давления на метеoстанции, в зависимoсти oт услoвий рельефа (при пoдъёме на 10 м давление пoнижается примернo на 1 мм рт.ст.).